DW7325 Weather Reports


time (UTC)temp
C
wind
direction
speed
KPH
gust
KPH
rain 1hr
cm
rain 24hr
cm
rain mn
cm
humidity
%
barometer
mb
20260504110652 6 192 0.0 0.0 0.00 0.00 0.00 83 1014.7
20260504110548 6 192 0.0 0.0 0.00 0.00 0.00 83 1014.7
20260504110443 6 192 0.0 0.0 0.00 0.00 0.00 83 1014.7
20260504110337 6 204 0.0 0.0 0.00 0.00 0.00 83 1014.7
20260504110235 6 204 0.0 0.0 0.00 0.00 0.00 83 1014.7
20260504110129 6 204 0.0 0.0 0.00 0.00 0.00 83 1014.7
20260504100329 7 217 0.0 0.0 0.00 0.00 0.00 78 1014.5
20260504081925 7 290 0.0 0.0 0.00 0.00 0.00 78 1014.9
20260504081819 7 290 0.0 0.0 0.00 0.00 0.00 78 1014.9
20260504081710 7 290 0.0 0.0 0.00 0.00 0.00 78 1014.9
20260504081608 7 290 0.0 0.0 0.00 0.00 0.00 78 1014.9
20260504081505 7 290 0.0 0.0 0.00 0.00 0.00 78 1014.8
20260504081358 7 290 0.0 0.0 0.00 0.00 0.00 78 1014.8
20260504081251 7 290 0.0 0.0 0.00 0.00 0.00 78 1014.8
20260504081147 7 290 0.0 0.0 0.00 0.00 0.00 78 1014.8
20260504081046 7 290 0.0 0.0 0.00 0.00 0.00 78 1014.8
20260504080938 7 290 0.0 0.0 0.00 0.00 0.00 78 1014.9
20260504080610 7 290 0.0 0.0 0.00 0.00 0.00 78 1014.8
20260504080505 7 290 0.0 0.0 0.00 0.00 0.00 78 1014.8
20260504080359 7 290 0.0 0.0 0.00 0.00 0.00 78 1014.7
20260504080252 7 290 0.0 0.0 0.00 0.00 0.00 78 1014.8
20260504070327 7 283 0.0 0.0 0.00 0.00 0.00 76 1014.8
20260504070225 7 283 0.0 0.0 0.00 0.00 0.00 76 1014.9
20260504060205 7 283 0.0 0.0 0.00 0.00 0.00 75 1015.0
20260504050748 6 283 0.0 0.0 0.00 0.00 0.00 72 1015.4
20260504050644 6 283 0.0 0.0 0.00 0.00 0.00 72 1015.3
20260504050535 6 283 0.0 0.0 0.00 0.00 0.00 72 1015.3
20260504050428 6 283 0.0 0.0 0.00 0.00 0.00 72 1015.3
20260504050323 6 283 0.0 0.0 0.00 0.00 0.00 72 1015.3
20260504050001 6 283 0.0 0.0 0.00 0.00 0.00 71 1015.2
20260504045856 6 283 0.0 0.0 0.00 0.00 0.00 71 1015.2
20260504045534 6 283 0.0 0.0 0.00 0.00 0.00 70 1015.2
20260504045209 6 283 0.0 0.0 0.00 0.00 0.00 70 1015.2
20260504045106 6 283 0.0 0.0 0.00 0.00 0.00 71 1015.2
20260504044740 6 283 0.0 0.0 0.00 0.00 0.00 71 1015.2
20260504044637 6 283 0.0 0.0 0.00 0.00 0.00 71 1015.2
20260504044530 6 283 0.0 0.0 0.00 0.00 0.00 71 1015.2
20260504044427 6 283 0.0 0.0 0.00 0.00 0.00 70 1015.2
20260504044321 6 283 0.0 0.0 0.00 0.00 0.00 70 1015.3
20260504043514 6 283 0.0 0.0 0.00 0.00 0.00 70 1015.2
20260504043407 7 283 0.0 0.0 0.00 0.00 0.00 69 1015.2
20260504043301 6 283 0.0 0.0 0.00 0.00 0.00 69 1015.2
20260504043153 6 283 0.0 0.0 0.00 0.00 0.00 69 1015.2
20260504043047 7 282 0.0 0.0 0.00 0.00 0.00 69 1015.2
20260504042941 7 283 0.0 0.0 0.00 0.00 0.00 69 1015.2
20260504042838 7 283 0.0 0.0 0.00 0.00 0.00 69 1015.2
20260504042734 7 283 0.0 0.0 0.00 0.00 0.00 69 1015.2
20260504042627 7 283 0.0 0.0 0.00 0.00 0.00 69 1015.2
20260504042522 7 283 0.0 0.0 0.00 0.00 0.00 69 1015.1
20260504042419 7 283 0.0 0.0 0.00 0.00 0.00 69 1015.1
20260504042054 7 283 0.0 0.0 0.00 0.00 0.00 70 1015.2
20260504041947 7 283 0.0 0.0 0.00 0.00 0.00 71 1015.1
20260504041842 7 283 0.0 0.0 0.00 0.00 0.00 71 1015.1
20260504041737 7 283 0.0 0.0 0.00 0.00 0.00 70 1015.2
20260504041632 7 283 0.0 0.0 0.00 0.00 0.00 70 1015.1
20260504041309 7 283 0.0 0.0 0.00 0.00 0.00 69 1015.0
20260504041205 7 283 0.0 0.0 0.00 0.00 0.00 69 1015.0
20260504041100 7 283 0.0 0.0 0.00 0.00 0.00 69 1015.0
20260504040956 7 283 0.0 0.0 0.00 0.00 0.00 69 1015.0
20260504040853 7 283 0.0 0.0 0.00 0.00 0.00 69 1014.9
20260504040531 7 283 0.0 0.0 0.00 0.00 0.00 69 1014.9
20260504040428 7 283 0.0 0.0 0.00 0.00 0.00 70 1014.9
20260504040324 7 283 0.0 0.0 0.00 0.00 0.00 70 1014.9
20260504040218 7 283 0.0 0.0 0.00 0.00 0.00 69 1014.9
20260504040111 7 283 0.0 0.0 0.00 0.00 0.00 69 1014.9
20260504035748 7 283 0.0 0.0 0.00 0.00 0.00 69 1014.9
20260504035643 7 283 0.0 0.0 0.00 0.00 0.00 69 1015.0
20260504035541 7 283 0.0 0.0 0.00 0.00 0.00 68 1014.9
20260504035218 7 283 0.0 0.0 0.00 0.00 0.00 68 1015.0
20260504035111 7 283 0.0 0.0 0.00 0.00 0.00 69 1014.9
20260504035009 7 283 0.0 0.0 0.00 0.00 0.00 69 1015.0
20260504034647 7 283 0.0 0.0 0.00 0.00 0.00 68 1015.0
20260504034545 8 283 0.0 0.0 0.00 0.00 0.00 67 1015.0
20260504034441 8 283 0.0 0.0 0.00 0.00 0.00 67 1015.1
20260504034336 8 283 0.0 0.0 0.00 0.00 0.00 67 1015.0
20260504034234 8 283 0.0 0.0 0.00 0.00 0.00 67 1015.0
20260504034127 8 283 0.0 0.0 0.00 0.00 0.00 67 1015.0
20260504034022 8 283 0.0 0.0 0.00 0.00 0.00 66 1015.0
20260504033915 8 283 0.0 0.0 0.00 0.00 0.00 66 1015.0
20260504033810 8 283 0.0 0.0 0.00 0.00 0.00 66 1014.9
20260504033704 8 283 0.0 0.0 0.00 0.00 0.00 66 1015.0
20260504033601 8 283 0.0 0.0 0.00 0.00 0.00 66 1015.0
20260504033456 8 283 0.0 0.0 0.00 0.00 0.00 66 1015.0
20260504033348 8 283 0.0 0.0 0.00 0.00 0.00 65 1015.1
20260504033247 8 283 0.0 0.0 0.00 0.00 0.00 66 1015.2
20260504033139 8 283 0.0 0.0 0.00 0.00 0.00 66 1015.2
20260504032811 8 237 0.0 0.0 0.00 0.00 0.00 66 1015.2
20260504032707 8 237 0.0 0.0 0.00 0.00 0.00 66 1015.1
20260504032340 8 237 0.0 0.0 0.00 0.00 0.00 65 1015.2
20260504032238 8 237 0.0 0.0 0.00 0.00 0.00 66 1015.2
20260504032136 8 237 0.0 0.0 0.00 0.00 0.00 66 1015.2
20260504032031 8 237 0.0 0.0 0.00 0.00 0.00 66 1015.2
20260504031926 8 237 0.0 0.0 0.00 0.00 0.00 65 1015.1
20260504031819 8 237 0.0 0.0 0.00 0.00 0.00 65 1015.0
20260504031714 8 237 0.0 0.0 0.00 0.00 0.00 65 1015.0
20260504031610 8 237 0.0 0.0 0.00 0.00 0.00 64 1015.0
20260504031027 8 215 0.0 0.0 0.00 0.00 0.00 63 1014.9
20260504030923 8 215 0.0 0.0 0.00 0.00 0.00 63 1014.9
20260504030820 8 215 0.0 0.0 0.00 0.00 0.00 62 1014.9
20260504030714 8 215 0.0 0.0 0.00 0.00 0.00 62 1014.9
20260504030612 8 215 0.0 0.0 0.00 0.00 0.00 62 1014.9
20260504030504 8 215 0.0 0.0 0.00 0.00 0.00 62 1014.9
20260504030357 8 215 0.0 0.0 0.00 0.00 0.00 62 1014.9
20260504030250 8 215 0.0 0.0 0.00 0.00 0.00 62 1014.9
20260504030144 8 215 0.0 0.0 0.00 0.00 0.00 62 1014.9
20260504030040 8 215 0.0 0.0 0.00 0.00 0.00 63 1015.0
20260504025936 8 215 0.0 0.0 0.00 0.00 0.00 62 1015.0
20260504025831 8 215 0.0 0.0 0.00 0.00 0.00 62 1014.9
20260504025724 8 215 0.0 0.0 0.00 0.00 0.00 62 1014.9
20260504025356 8 215 0.0 0.0 0.00 0.00 0.00 59 1014.9
20260504025254 8 215 0.0 0.0 0.00 0.00 0.00 59 1014.9
20260504025148 8 215 0.0 0.0 0.00 0.00 0.00 59 1014.9
20260504025045 8 215 0.0 0.0 0.00 0.00 0.00 60 1014.9
20260504024939 8 215 0.0 0.0 0.00 0.00 0.00 60 1014.9
20260504024835 8 215 0.0 0.0 0.00 0.00 0.00 60 1014.9
20260504024732 8 215 0.0 0.0 0.00 0.00 0.00 60 1014.8
20260504024624 8 215 0.0 0.0 0.00 0.00 0.00 61 1014.8
20260504024520 8 215 0.0 0.0 0.00 0.00 0.00 62 1014.9
20260504023454 8 215 0.0 0.0 0.00 0.00 0.00 59 1014.8
20260504023347 8 215 0.0 0.0 0.00 0.00 0.00 59 1014.9
20260504023243 8 215 0.0 0.0 0.00 0.00 0.00 58 1014.8
20260504023140 9 215 0.0 0.0 0.00 0.00 0.00 59 1014.8
20260504023034 9 215 0.0 0.0 0.00 0.00 0.00 60 1014.8
20260504022932 9 215 0.0 0.0 0.00 0.00 0.00 60 1014.8
20260504022829 9 215 0.0 0.0 0.00 0.00 0.00 59 1014.8
20260504022723 9 215 0.0 0.0 0.00 0.00 0.00 59 1014.8
20260504022616 9 215 0.0 0.0 0.00 0.00 0.00 59 1014.8
20260504022512 9 215 0.0 0.0 0.00 0.00 0.00 59 1014.7
20260504022405 9 215 0.0 0.0 0.00 0.00 0.00 59 1014.8
20260504022304 9 215 0.0 0.0 0.00 0.00 0.00 59 1014.8
20260504022155 9 215 0.0 0.0 0.00 0.00 0.00 59 1014.7
20260504022052 9 215 0.0 0.0 0.00 0.00 0.00 59 1014.7
20260504021948 9 215 0.0 0.0 0.00 0.00 0.00 59 1014.7
20260504021842 9 215 0.0 0.0 0.00 0.00 0.00 59 1014.7
20260504021515 9 215 0.0 0.0 0.00 0.00 0.00 57 1014.8
20260504021411 9 215 0.0 0.0 0.00 0.00 0.00 57 1014.7
20260504021307 9 215 0.0 0.0 0.00 0.00 0.00 57 1014.7
20260504021201 9 215 0.0 0.0 0.00 0.00 0.00 57 1014.7
20260504021055 9 215 0.0 1.6 0.00 0.00 0.00 57 1014.8
20260504020949 9 215 0.0 0.0 0.00 0.00 0.00 57 1014.7
20260504020846 9 215 0.0 0.0 0.00 0.00 0.00 57 1014.7
20260504020743 9 215 0.0 0.0 0.00 0.00 0.00 57 1014.7
20260504020637 9 215 0.0 1.6 0.00 0.00 0.00 56 1014.7
20260504020532 9 215 0.0 1.6 0.00 0.00 0.00 56 1014.7
20260504020426 9 215 0.0 1.6 0.00 0.00 0.00 56 1014.7
20260504020323 9 215 0.0 1.6 0.00 0.00 0.00 56 1014.7
20260504015959 9 225 0.0 0.0 0.00 0.00 0.00 56 1014.7
20260504015855 9 225 0.0 0.0 0.00 0.00 0.00 56 1014.7
20260504015753 10 225 0.0 0.0 0.00 0.00 0.00 56 1014.6
20260504015423 10 217 0.0 0.0 0.00 0.00 0.00 55 1014.6
20260504015316 10 213 0.0 0.0 0.00 0.00 0.00 55 1014.5
20260504015213 10 213 0.0 0.0 0.00 0.00 0.00 56 1014.5
20260504014847 10 213 0.0 0.0 0.00 0.00 0.00 55 1014.5
20260504014523 10 213 0.0 0.0 0.00 0.00 0.00 55 1014.5
20260504014156 10 213 0.0 0.0 0.00 0.00 0.00 54 1014.4
20260504014053 10 213 0.0 0.0 0.00 0.00 0.00 54 1014.4
20260504013947 10 213 0.0 0.0 0.00 0.00 0.00 54 1014.4
20260504013624 10 213 0.0 0.0 0.00 0.00 0.00 54 1014.4
20260504013516 10 213 0.0 0.0 0.00 0.00 0.00 54 1014.4
20260504013409 10 213 0.0 0.0 0.00 0.00 0.00 54 1014.4
20260504013041 10 213 0.0 0.0 0.00 0.00 0.00 53 1014.4
20260504012938 10 213 0.0 0.0 0.00 0.00 0.00 53 1014.3
20260504012139 11 213 0.0 0.0 0.00 0.00 0.00 51 1014.2
20260504012032 11 213 0.0 0.0 0.00 0.00 0.00 51 1014.2
20260504011929 11 213 0.0 0.0 0.00 0.00 0.00 51 1014.1
20260504011823 11 213 0.0 0.0 0.00 0.00 0.00 51 1014.1
20260504011459 11 213 0.0 0.0 0.00 0.00 0.00 52 1014.1
20260504011355 11 213 0.0 0.0 0.00 0.00 0.00 52 1014.1
20260504011250 11 213 0.0 0.0 0.00 0.00 0.00 51 1014.1
20260504011143 11 213 0.0 0.0 0.00 0.00 0.00 51 1014.1
20260504011037 11 213 0.0 0.0 0.00 0.00 0.00 51 1014.1
20260504010934 11 213 0.0 0.0 0.00 0.00 0.00 51 1014.1
20260504010830 11 213 0.0 0.0 0.00 0.00 0.00 51 1014.0
20260504010724 11 213 0.0 0.0 0.00 0.00 0.00 51 1014.0
20260504010622 11 213 0.0 0.0 0.00 0.00 0.00 50 1014.1
20260504010517 11 213 0.0 0.0 0.00 0.00 0.00 50 1014.1
20260504005933 11 213 0.0 0.0 0.00 0.00 0.00 48 1014.0
20260504005829 11 213 0.0 0.0 0.00 0.00 0.00 48 1014.0
20260504005725 11 213 0.0 0.0 0.00 0.00 0.00 48 1014.1
20260504005357 12 213 0.0 0.0 0.00 0.00 0.00 48 1014.0
20260504005249 12 213 0.0 0.0 0.00 0.00 0.00 48 1014.0
20260504005144 12 213 0.0 0.0 0.00 0.00 0.00 48 1014.0
20260504004816 12 213 0.0 0.0 0.00 0.00 0.00 49 1014.0
20260504004714 12 213 0.0 0.0 0.00 0.00 0.00 49 1014.0
20260504004609 12 213 0.0 0.0 0.00 0.00 0.00 49 1014.0
20260504004500 12 213 0.0 0.0 0.00 0.00 0.00 49 1013.9
20260504004353 12 213 0.0 0.0 0.00 0.00 0.00 48 1013.9
20260504004249 12 213 0.0 0.0 0.00 0.00 0.00 48 1014.0
20260504004142 12 213 0.0 0.0 0.00 0.00 0.00 48 1013.9
20260504004035 12 213 0.0 0.0 0.00 0.00 0.00 48 1013.9
20260504003933 12 213 0.0 0.0 0.00 0.00 0.00 48 1013.9
20260504003826 12 213 0.0 0.0 0.00 0.00 0.00 48 1013.9
20260504003720 12 213 0.0 0.0 0.00 0.00 0.00 47 1014.0
20260504003615 12 213 0.0 0.0 0.00 0.00 0.00 46 1013.9
20260504003512 12 213 0.0 0.0 0.00 0.00 0.00 45 1013.9
20260504003408 12 213 0.0 0.0 0.00 0.00 0.00 44 1013.9
20260504003302 12 213 0.0 0.0 0.00 0.00 0.00 43 1013.9
20260504003155 12 213 0.0 0.0 0.00 0.00 0.00 43 1013.9
20260504003050 12 213 0.0 0.0 0.00 0.00 0.00 43 1013.8
20260504002946 13 213 0.0 0.0 0.00 0.00 0.00 42 1013.8
20260504002843 13 213 0.0 0.0 0.00 0.00 0.00 41 1013.8
20260504002739 13 213 0.0 0.0 0.00 0.00 0.00 41 1013.8
20260504002637 13 213 0.0 0.0 0.00 0.00 0.00 42 1013.9
20260504002311 13 213 0.0 0.0 0.00 0.00 0.00 43 1013.8
20260504002206 13 213 0.0 0.0 0.00 0.00 0.00 45 1013.8
20260504002102 13 213 0.0 0.0 0.00 0.00 0.00 45 1013.8
20260504001958 13 213 0.0 0.0 0.00 0.00 0.00 45 1013.9
20260504001853 13 213 0.0 0.0 0.00 0.00 0.00 45 1013.9
20260504001530 13 213 0.0 0.0 0.00 0.00 0.00 46 1013.9
20260504001426 13 213 0.0 0.0 0.00 0.00 0.00 45 1013.9
20260504001319 13 213 0.0 0.0 0.00 0.00 0.00 46 1013.9
20260504001213 13 213 0.0 0.0 0.00 0.00 0.00 46 1013.9
20260504001106 13 213 0.0 0.0 0.00 0.00 0.00 45 1013.9
20260504001003 13 213 0.0 0.0 0.00 0.00 0.00 44 1013.9
20260504000901 13 213 0.0 0.0 0.00 0.00 0.00 44 1013.9
20260504000754 13 213 0.0 0.0 0.00 0.00 0.00 44 1013.9
20260504000650 13 213 0.0 0.0 0.00 0.00 0.00 44 1013.9
20260504000547 13 213 0.0 0.0 0.00 0.00 0.00 44 1013.9
20260504000440 13 213 0.0 0.0 0.00 0.00 0.00 43 1013.9
20260504000335 13 213 0.0 0.0 0.00 0.00 0.00 43 1013.9
20260504000229 13 213 0.0 0.0 0.00 0.00 0.00 42 1013.9
20260504000126 13 213 0.0 0.0 0.00 0.00 0.00 41 1013.9
20260504000021 13 213 0.0 0.0 0.00 0.00 0.00 40 1013.9
20260503235657 14 213 0.0 0.0 0.00 0.00 0.00 41 1013.8
20260503235333 14 213 0.0 0.0 0.00 0.00 0.00 42 1013.8
20260503235226 14 213 0.0 0.0 0.00 0.00 0.00 42 1013.7
20260503234640 14 213 0.0 0.0 0.00 0.00 0.00 44 1013.7
20260503234534 14 213 0.0 0.0 0.00 0.00 0.00 44 1013.7
20260503234431 14 213 0.0 0.0 0.00 0.00 0.00 43 1013.7
20260503234326 14 213 0.0 0.0 0.00 0.00 0.00 43 1013.7
20260503234000 14 213 0.0 0.0 0.00 0.00 0.00 43 1013.7
20260503233416 15 213 0.0 0.0 0.00 0.00 0.00 42 1013.7
20260503233049 15 213 0.0 1.6 0.00 0.00 0.00 43 1013.6
20260503232945 15 212 0.0 1.6 0.00 0.00 0.00 42 1013.7
20260503232838 15 224 0.0 0.0 0.00 0.00 0.00 42 1013.7
20260503232732 15 224 0.0 0.0 0.00 0.00 0.00 42 1013.7
20260503232625 15 225 0.0 0.0 0.00 0.00 0.00 44 1013.7
20260503232519 15 42 0.0 0.0 0.00 0.00 0.00 44 1013.7
20260503231936 15 42 0.0 0.0 0.00 0.00 0.00 41 1013.6
20260503231611 15 288 0.0 3.2 0.00 0.00 0.00 44 1013.5
20260503231506 15 134 0.0 1.6 0.00 0.00 0.00 44 1013.5
20260503231403 15 156 0.0 1.6 0.00 0.00 0.00 43 1013.5
20260503231259 15 234 0.0 1.6 0.00 0.00 0.00 43 1013.5
20260503230938 15 69 0.0 0.0 0.00 0.00 0.00 42 1013.4
20260503230834 15 87 0.0 0.0 0.00 0.00 0.00 41 1013.4
20260503230729 15 87 0.0 0.0 0.00 0.00 0.00 41 1013.5
20260503230624 15 87 0.0 0.0 0.00 0.00 0.00 40 1013.5
20260503230301 15 38 0.0 0.0 0.00 0.00 0.00 36 1013.5
20260503230158 15 191 0.0 0.0 0.00 0.00 0.00 36 1013.4
20260503225830 15 215 0.0 0.0 0.00 0.00 0.00 36 1013.5
20260503225505 15 200 0.0 1.6 0.00 0.00 0.00 40 1013.4
20260503225359 15 156 0.0 1.6 0.00 0.00 0.00 39 1013.4
20260503225257 15 31 0.0 1.6 0.00 0.00 0.00 38 1013.4
20260503225152 15 235 0.0 1.6 0.00 0.00 0.00 36 1013.4
20260503225047 15 88 0.0 1.6 0.00 0.00 0.00 35 1013.4
20260503224943 15 275 0.0 1.6 0.00 0.00 0.00 36 1013.4
20260503224838 15 49 0.0 0.0 0.00 0.00 0.00 36 1013.5
20260503224735 15 35 0.0 0.0 0.00 0.00 0.00 36 1013.4
20260503224633 15 88 0.0 0.0 0.00 0.00 0.00 36 1013.5
20260503224527 15 88 0.0 0.0 0.00 0.00 0.00 36 1013.4
20260503224421 15 81 0.0 0.0 0.00 0.00 0.00 34 1013.5
20260503224319 15 81 0.0 0.0 0.00 0.00 0.00 33 1013.5
20260503223955 15 180 0.0 1.6 0.00 0.00 0.00 34 1013.5
20260503223848 15 214 0.0 1.6 0.00 0.00 0.00 34 1013.5
20260503223524 15 247 0.0 4.8 0.00 0.00 0.00 33 1013.5
20260503223200 15 201 0.0 4.8 0.00 0.00 0.00 33 1013.5
20260503223055 15 74 0.0 4.8 0.00 0.00 0.00 32 1013.5
20260503222951 15 0 0.0 4.8 0.00 0.00 0.00 32 1013.6
20260503222848 16 275 0.0 4.8 0.00 0.00 0.00 33 1013.6
20260503222744 16 109 0.0 4.8 0.00 0.00 0.00 33 1013.6
20260503222418 16 180 0.0 4.8 0.00 0.00 0.00 32 1013.6
20260503222313 16 187 0.0 4.8 0.00 0.00 0.00 34 1013.6
20260503222206 16 144 0.0 4.8 0.00 0.00 0.00 32 1013.6
20260503222103 16 171 0.0 4.8 0.00 0.00 0.00 30 1013.6
20260503221735 16 26 0.0 0.0 0.00 0.00 0.00 32 1013.5
20260503221629 16 23 0.0 0.0 0.00 0.00 0.00 32 1013.5
20260503221523 16 348 0.0 0.0 0.00 0.00 0.00 32 1013.6
20260503221418 16 348 0.0 3.2 0.00 0.00 0.00 32 1013.5
20260503221311 16 348 0.0 3.2 0.00 0.00 0.00 32 1013.6
20260503221209 16 302 0.0 3.2 0.00 0.00 0.00 32 1013.6
20260503221102 16 171 0.0 3.2 0.00 0.00 0.00 31 1013.6
20260503220959 16 242 0.0 3.2 0.00 0.00 0.00 31 1013.6
20260503220852 16 93 0.0 3.2 0.00 0.00 0.00 31 1013.6
20260503220746 16 34 0.0 3.2 0.00 0.00 0.00 32 1013.6
20260503220643 16 13 0.0 3.2 0.00 0.00 0.00 34 1013.6
20260503220541 16 0 1.6 12.9 0.00 0.00 0.00 35 1013.7
20260503220439 16 0 1.6 12.9 0.00 0.00 0.00 36 1013.7
20260503220334 16 31 1.6 12.9 0.00 0.00 0.00 33 1013.7
20260503220232 16 151 1.6 12.9 0.00 0.00 0.00 35 1013.7
20260503220128 16 81 1.6 12.9 0.00 0.00 0.00 35 1013.7
20260503220026 16 326 1.6 12.9 0.00 0.00 0.00 35 1013.7
20260503215921 16 321 1.6 12.9 0.00 0.00 0.00 36 1013.7
20260503215817 16 311 1.6 12.9 0.00 0.00 0.00 36 1013.7
20260503215714 16 262 1.6 12.9 0.00 0.00 0.00 35 1013.7
20260503215610 16 126 1.6 12.9 0.00 0.00 0.00 35 1013.7
20260503215505 16 268 1.6 12.9 0.00 0.00 0.00 34 1013.7
20260503215401 16 253 1.6 12.9 0.00 0.00 0.00 34 1013.6
20260503215258 16 186 1.6 12.9 0.00 0.00 0.00 33 1013.6
20260503215150 16 254 1.6 12.9 0.00 0.00 0.00 33 1013.6
20260503214827 16 261 0.0 12.9 0.00 0.00 0.00 33 1013.6
20260503214723 16 19 0.0 12.9 0.00 0.00 0.00 33 1013.6
20260503214620 16 38 0.0 12.9 0.00 0.00 0.00 33 1013.7
20260503214511 16 235 0.0 6.4 0.00 0.00 0.00 33 1013.7
20260503214408 16 84 0.0 6.4 0.00 0.00 0.00 34 1013.6
20260503214301 16 109 0.0 6.4 0.00 0.00 0.00 33 1013.7
20260503213934 16 168 1.6 6.4 0.00 0.00 0.00 33 1013.7
20260503213827 16 164 1.6 6.4 0.00 0.00 0.00 33 1013.6
20260503213724 16 5 1.6 6.4 0.00 0.00 0.00 32 1013.6
20260503213357 16 263 1.6 6.4 0.00 0.00 0.00 31 1013.7
20260503213251 16 334 1.6 6.4 0.00 0.00 0.00 31 1013.7
20260503213147 16 254 1.6 6.4 0.00 0.00 0.00 31 1013.7
20260503213044 16 225 1.6 6.4 0.00 0.00 0.00 31 1013.8
20260503212941 16 129 1.6 6.4 0.00 0.00 0.00 33 1013.8
20260503212835 16 325 0.0 6.4 0.00 0.00 0.00 33 1013.8
20260503212731 16 294 0.0 6.4 0.00 0.00 0.00 33 1013.8
20260503212626 16 355 0.0 4.8 0.00 0.00 0.00 34 1013.8
20260503212520 16 348 0.0 4.8 0.00 0.00 0.00 34 1013.8
20260503212155 16 5 0.0 4.8 0.00 0.00 0.00 34 1013.8
20260503212050 16 221 0.0 4.8 0.00 0.00 0.00 33 1013.9
20260503211945 16 194 0.0 4.8 0.00 0.00 0.00 33 1013.8
20260503211840 16 96 0.0 4.8 0.00 0.00 0.00 33 1013.8
20260503211509 16 136 1.6 8.0 0.00 0.00 0.00 33 1013.8
20260503211403 16 31 1.6 8.0 0.00 0.00 0.00 33 1013.8
20260503211259 16 254 1.6 8.0 0.00 0.00 0.00 33 1013.8
20260503211154 16 247 1.6 8.0 0.00 0.00 0.00 33 1013.8
20260503211049 16 128 1.6 8.0 0.00 0.00 0.00 34 1013.7
20260503210947 16 129 1.6 8.0 0.00 0.00 0.00 33 1013.8
20260503210840 16 163 1.6 8.0 0.00 0.00 0.00 33 1013.8
20260503210738 16 140 1.6 8.0 0.00 0.00 0.00 32 1013.8
20260503210635 16 102 1.6 8.0 0.00 0.00 0.00 32 1013.9
20260503210308 16 234 1.6 8.0 0.00 0.00 0.00 31 1013.8
20260503210204 16 229 1.6 8.0 0.00 0.00 0.00 30 1013.9
20260503210057 16 192 1.6 8.0 0.00 0.00 0.00 30 1013.9
20260503205954 16 140 1.6 8.0 0.00 0.00 0.00 30 1013.9
20260503205848 16 232 1.6 8.0 0.00 0.00 0.00 31 1013.9
20260503205745 16 5 1.6 8.0 0.00 0.00 0.00 29 1013.9
20260503205642 16 140 1.6 8.0 0.00 0.00 0.00 31 1014.0
20260503205535 16 298 0.0 6.4 0.00 0.00 0.00 31 1014.0
20260503205427 16 303 0.0 6.4 0.00 0.00 0.00 30 1014.0
20260503205323 16 126 0.0 6.4 0.00 0.00 0.00 30 1013.9
20260503205218 16 178 0.0 6.4 0.00 0.00 0.00 30 1013.9
20260503205115 16 209 0.0 6.4 0.00 0.00 0.00 31 1013.9
20260503204750 16 121 0.0 17.7 0.00 0.00 0.00 30 1013.9
20260503204642 16 46 0.0 17.7 0.00 0.00 0.00 32 1014.0
20260503204540 16 238 0.0 17.7 0.00 0.00 0.00 33 1014.0
20260503204216 16 214 1.6 17.7 0.00 0.00 0.00 31 1013.9
20260503204114 16 24 0.0 17.7 0.00 0.00 0.00 30 1014.0
20260503204009 16 117 0.0 17.7 0.00 0.00 0.00 30 1014.0
20260503203902 16 9 1.6 17.7 0.00 0.00 0.00 31 1014.0
20260503203539 16 278 1.6 17.7 0.00 0.00 0.00 32 1014.1
20260503203217 16 262 1.6 17.7 0.00 0.00 0.00 33 1014.2
20260503203114 16 247 1.6 17.7 0.00 0.00 0.00 32 1014.1
20260503203009 16 200 1.6 17.7 0.00 0.00 0.00 32 1014.1
20260503202906 16 314 1.6 8.0 0.00 0.00 0.00 32 1014.1
20260503202540 16 96 1.6 8.0 0.00 0.00 0.00 33 1014.1
20260503202438 16 308 1.6 8.0 0.00 0.00 0.00 33 1014.2
20260503202332 16 126 1.6 6.4 0.00 0.00 0.00 32 1014.2
20260503202009 16 331 1.6 8.0 0.00 0.00 0.00 35 1014.2
20260503201906 16 276 1.6 8.0 0.00 0.00 0.00 33 1014.2
20260503201803 16 171 1.6 8.0 0.00 0.00 0.00 33 1014.1
20260503201659 16 350 1.6 8.0 0.00 0.00 0.00 32 1014.1
20260503201552 16 338 1.6 8.0 0.00 0.00 0.00 32 1014.1
20260503201223 16 306 1.6 8.0 0.00 0.00 0.00 32 1014.2
20260503200637 16 19 1.6 9.7 0.00 0.00 0.00 33 1014.2
20260503200531 16 256 1.6 9.7 0.00 0.00 0.00 32 1014.2
20260503200424 16 313 1.6 9.7 0.00 0.00 0.00 32 1014.2
20260503200320 16 284 1.6 9.7 0.00 0.00 0.00 34 1014.2
20260503200216 16 107 1.6 9.7 0.00 0.00 0.00 34 1014.3
20260503200112 16 288 1.6 9.7 0.00 0.00 0.00 34 1014.3
20260503200007 16 120 1.6 9.7 0.00 0.00 0.00 34 1014.4
20260503195902 16 249 1.6 9.7 0.00 0.00 0.00 34 1014.4
20260503195759 16 127 1.6 9.7 0.00 0.00 0.00 34 1014.4
20260503195652 16 211 1.6 9.7 0.00 0.00 0.00 34 1014.5
20260503195322 16 34 1.6 9.7 0.00 0.00 0.00 33 1014.5
20260503194951 16 163 0.0 8.0 0.00 0.00 0.00 33 1014.7
20260503194849 16 105 1.6 8.0 0.00 0.00 0.00 33 1014.7
20260503194742 16 126 1.6 8.0 0.00 0.00 0.00 32 1014.7
20260503194156 15 28 1.6 19.3 0.00 0.00 0.00 33 1014.9
20260503194050 15 261 1.6 19.3 0.00 0.00 0.00 32 1014.9
20260503193944 16 331 1.6 19.3 0.00 0.00 0.00 33 1014.9
20260503193841 16 15 1.6 19.3 0.00 0.00 0.00 33 1014.8
20260503193739 16 264 1.6 19.3 0.00 0.00 0.00 32 1014.9
20260503193635 16 270 3.2 19.3 0.00 0.00 0.00 34 1014.9
20260503193531 16 236 3.2 19.3 0.00 0.00 0.00 33 1014.9
20260503193426 16 296 3.2 19.3 0.00 0.00 0.00 32 1014.9
20260503193321 16 237 3.2 19.3 0.00 0.00 0.00 32 1014.9
20260503193216 16 82 3.2 19.3 0.00 0.00 0.00 31 1014.9
20260503193109 16 155 3.2 19.3 0.00 0.00 0.00 31 1014.9
20260503193003 16 173 3.2 19.3 0.00 0.00 0.00 32 1015.0
20260503192857 16 144 3.2 19.3 0.00 0.00 0.00 32 1014.9
20260503192752 16 188 3.2 19.3 0.00 0.00 0.00 32 1015.0
20260503192646 16 258 1.6 19.3 0.00 0.00 0.00 33 1015.2
20260503192541 16 222 3.2 19.3 0.00 0.00 0.00 33 1015.0
20260503192435 16 100 1.6 19.3 0.00 0.00 0.00 33 1015.0
20260503192333 16 262 1.6 19.3 0.00 0.00 0.00 34 1015.0
20260503192228 16 71 1.6 11.3 0.00 0.00 0.00 31 1015.0
20260503192123 16 229 3.2 11.3 0.00 0.00 0.00 31 1015.0
20260503192016 16 111 1.6 11.3 0.00 0.00 0.00 32 1015.0
20260503191913 16 148 1.6 11.3 0.00 0.00 0.00 32 1015.1
20260503191810 16 200 1.6 11.3 0.00 0.00 0.00 32 1015.0
20260503191445 16 161 3.2 12.9 0.00 0.00 0.00 31 1015.2
20260503191341 16 238 3.2 12.9 0.00 0.00 0.00 33 1015.3
20260503191234 16 103 3.2 12.9 0.00 0.00 0.00 33 1015.3
20260503191128 16 347 3.2 12.9 0.00 0.00 0.00 32 1015.3
20260503191025 16 267 3.2 12.9 0.00 0.00 0.00 32 1015.3
20260503190919 16 317 3.2 12.9 0.00 0.00 0.00 32 1015.3
20260503190813 16 231 3.2 12.9 0.00 0.00 0.00 31 1015.3
20260503190709 16 104 3.2 12.9 0.00 0.00 0.00 30 1015.3
20260503190604 16 236 3.2 12.9 0.00 0.00 0.00 30 1015.4
20260503190455 16 153 1.6 12.9 0.00 0.00 0.00 32 1015.5
20260503190348 16 247 1.6 12.9 0.00 0.00 0.00 34 1015.4
20260503190246 16 200 1.6 12.9 0.00 0.00 0.00 34 1015.4
20260503190141 16 255 1.6 12.9 0.00 0.00 0.00 34 1015.4
20260503190033 16 320 1.6 12.9 0.00 0.00 0.00 33 1015.4
20260503185926 16 58 1.6 12.9 0.00 0.00 0.00 34 1015.5
20260503185821 16 22 1.6 12.9 0.00 0.00 0.00 33 1015.5
20260503185455 16 38 1.6 11.3 0.00 0.00 0.00 33 1015.5
20260503185352 16 114 1.6 11.3 0.00 0.00 0.00 32 1015.5
20260503185026 16 344 1.6 11.3 0.00 0.00 0.00 34 1015.4
20260503184703 16 264 1.6 11.3 0.00 0.00 0.00 34 1015.5
20260503184557 16 89 1.6 11.3 0.00 0.00 0.00 33 1015.5
20260503184456 15 103 1.6 11.3 0.00 0.00 0.00 32 1015.5
20260503184353 16 86 3.2 11.3 0.00 0.00 0.00 32 1015.6
20260503184249 16 146 3.2 11.3 0.00 0.00 0.00 33 1015.6
20260503183701 16 323 1.6 8.0 0.00 0.00 0.00 34 1015.6
20260503183556 16 279 1.6 8.0 0.00 0.00 0.00 34 1015.6
20260503183452 15 322 1.6 8.0 0.00 0.00 0.00 33 1015.6
20260503183350 16 302 1.6 11.3 0.00 0.00 0.00 34 1015.6
20260503183246 15 11 1.6 11.3 0.00 0.00 0.00 35 1015.6
20260503182923 16 152 1.6 11.3 0.00 0.00 0.00 32 1015.6
20260503182815 16 302 1.6 11.3 0.00 0.00 0.00 35 1015.6
20260503182710 15 274 1.6 11.3 0.00 0.00 0.00 35 1015.6
20260503182603 15 86 1.6 11.3 0.00 0.00 0.00 33 1015.6
20260503182458 15 20 1.6 11.3 0.00 0.00 0.00 34 1015.6
20260503182355 15 106 1.6 11.3 0.00 0.00 0.00 33 1015.6
20260503182253 15 269 1.6 11.3 0.00 0.00 0.00 34 1015.6
20260503181708 16 207 1.6 11.3 0.00 0.00 0.00 35 1015.7
20260503181341 16 21 1.6 9.7 0.00 0.00 0.00 34 1015.7
20260503181235 15 234 1.6 9.7 0.00 0.00 0.00 36 1015.7
20260503181133 15 250 1.6 9.7 0.00 0.00 0.00 36 1015.8
20260503181031 15 17 1.6 9.7 0.00 0.00 0.00 34 1015.7
20260503180926 15 66 1.6 14.5 0.00 0.00 0.00 33 1015.7
20260503180820 15 40 1.6 14.5 0.00 0.00 0.00 35 1015.8
20260503180717 15 259 1.6 14.5 0.00 0.00 0.00 37 1015.9
20260503180612 15 0 0.0 14.5 0.00 0.00 0.00 35 1015.8
20260503180249 15 111 1.6 14.5 0.00 0.00 0.00 34 1015.9
20260503175923 15 226 1.6 14.5 0.00 0.00 0.00 35 1015.8
20260503175820 15 188 3.2 14.5 0.00 0.00 0.00 37 1015.8
20260503175459 14 211 3.2 14.5 0.00 0.00 0.00 35 1015.8
20260503175354 15 82 1.6 14.5 0.00 0.00 0.00 34 1015.8
20260503175248 15 273 1.6 14.5 0.00 0.00 0.00 33 1015.9
20260503174438 15 249 1.6 14.5 0.00 0.00 0.00 34 1015.9
20260503174334 15 269 1.6 14.5 0.00 0.00 0.00 35 1015.8
20260503174228 15 26 1.6 14.5 0.00 0.00 0.00 35 1015.8
20260503174126 15 342 1.6 14.5 0.00 0.00 0.00 36 1015.9
20260503174019 16 282 1.6 14.5 0.00 0.00 0.00 36 1015.9
20260503173914 16 42 1.6 14.5 0.00 0.00 0.00 34 1016.0
20260503173811 16 178 1.6 14.5 0.00 0.00 0.00 36 1015.9
20260503173448 15 168 3.2 14.5 0.00 0.00 0.00 34 1016.1
20260503173347 15 184 3.2 14.5 0.00 0.00 0.00 34 1016.1
20260503173240 15 257 3.2 14.5 0.00 0.00 0.00 34 1016.1
20260503173132 15 115 3.2 14.5 0.00 0.00 0.00 35 1016.1
20260503172811 15 36 3.2 9.7 0.00 0.00 0.00 37 1016.1
20260503172703 15 271 1.6 9.7 0.00 0.00 0.00 38 1016.1
20260503172600 15 338 1.6 9.7 0.00 0.00 0.00 35 1016.1
20260503172454 15 76 1.6 9.7 0.00 0.00 0.00 37 1016.1
20260503172349 15 291 1.6 9.7 0.00 0.00 0.00 37 1016.1
20260503172245 14 293 1.6 9.7 0.00 0.00 0.00 36 1016.1
20260503172142 14 228 1.6 9.7 0.00 0.00 0.00 38 1016.1
20260503171818 14 126 1.6 9.7 0.00 0.00 0.00 37 1016.2
20260503171449 14 268 1.6 9.7 0.00 0.00 0.00 36 1016.4
20260503171343 14 284 1.6 9.7 0.00 0.00 0.00 36 1016.3
20260503171020 15 15 1.6 9.7 0.00 0.00 0.00 37 1016.3
20260503170653 14 240 1.6 9.7 0.00 0.00 0.00 39 1016.4
20260503170550 14 263 3.2 9.7 0.00 0.00 0.00 38 1016.4
20260503170447 14 355 3.2 9.7 0.00 0.00 0.00 40 1016.4
20260503170341 14 63 3.2 9.7 0.00 0.00 0.00 38 1016.4
20260503170238 14 340 3.2 9.7 0.00 0.00 0.00 37 1016.5
20260503170136 14 35 3.2 12.9 0.00 0.00 0.00 37 1016.5
20260503160208 15 338 1.6 9.7 0.00 0.00 0.00 36 1017.2
20260503160105 15 300 1.6 9.7 0.00 0.00 0.00 37 1017.1
20260503150945 13 348 1.6 12.9 0.00 0.00 0.00 41 1017.5
20260503150839 13 26 1.6 12.9 0.00 0.00 0.00 40 1017.5
20260503150734 13 321 1.6 12.9 0.00 0.00 0.00 42 1017.4
20260503150629 13 221 1.6 12.9 0.00 0.00 0.00 41 1017.5
20260503150526 13 288 1.6 12.9 0.00 0.00 0.00 40 1017.4
20260503150424 13 257 1.6 12.9 0.00 0.00 0.00 42 1017.4
20260503150320 13 305 1.6 12.9 0.00 0.00 0.00 39 1017.4
20260503150212 13 176 1.6 12.9 0.00 0.00 0.00 40 1017.4
20260503150108 13 345 3.2 12.9 0.00 0.00 0.00 40 1017.4
20260503140109 11 21 1.6 8.0 0.00 0.00 0.00 48 1017.6
20260503130951 8 329 3.2 14.5 0.00 0.00 0.00 55 1017.8
20260503130846 8 33 1.6 14.5 0.00 0.00 0.00 55 1017.7
20260503130740 8 77 1.6 14.5 0.00 0.00 0.00 55 1017.7
20260503130636 8 348 1.6 14.5 0.00 0.00 0.00 55 1017.7
20260503130530 8 30 3.2 16.1 0.00 0.00 0.00 56 1017.7
20260503130422 8 265 1.6 16.1 0.00 0.00 0.00 56 1017.8
20260503130317 8 30 1.6 16.1 0.00 0.00 0.00 56 1017.8
20260503130213 8 0 1.6 16.1 0.00 0.00 0.00 56 1017.8
20260503130108 8 38 1.6 16.1 0.00 0.00 0.00 57 1017.7